Location: Unspecified
(35.6961°N, 0.0000°E)
Time: 18:19:35
(UTC+00:00)

Explorer 11/Cluster Stage 4 - Pass Details

Date: 22 May 2019
Orbit: 467 x 1260 km, 28.8° (Epoch: 24 June)

Event Time Altitude Azimuth Distance (km) Brightness Sun altitude
Rises 01:59:09 0° 208° (SSW) 3,347 - -26.9°
Reaches altitude 10° 02:04:27 10° 167° (SSE) 2,152 - -26.3°
Maximum altitude 02:05:07 10° 160° (SSE) 2,103 - -26.3°
Drops below altitude 10° 02:05:46 10° 152° (SSE) 2,089 - -26.2°
Exits shadow 02:08:20 - 124° (SE) 2,338 9.0 -25.9°
Sets 02:10:17 0° 108° (ESE) 2,786 9.6 -25.7°
